{"data":{"norad_id":64830,"epoch":"2026-05-25T04:45:45.519264Z","epoch_age_seconds":68338,"freshness":"FRESH","line1":"1 64830U 25151Q   26145.19844351  .00001283  00000+0  19736-3 0  9990","line2":"2 64830  51.9031 327.2599 0000750 100.3759 259.7288 14.79917197 46563","mean_motion":14.79917197,"eccentricity":7.5e-5,"inclination_deg":51.9031,"raan_deg":327.2599,"arg_perigee_deg":100.3759,"mean_anomaly_deg":259.7288,"bstar":0.00019736,"rev_number":4656,"period_min":97.302741188432,"perigee_km":629.05993658523,"apogee_km":630.1110949626,"semimajor_km":7007.7225157739,"source":"CELESTRAK","updated_at":"2026-05-25T13:38:04.825476Z"}}